DW2168 Weather Reports


Display with metric or nautical units.
time (UTC)temp
F
wind
direction
speed
MPH
gust
MPH
rain 1hr
in
rain 24hr
in
rain mn
in
humidity
%
barometer
mb
20260504082006 54 1 1.0 4.0 0.00 0.00 0.00 48 1013.5
20260504081006 55 1 2.0 6.0 0.00 0.00 0.00 47 1013.4
20260504050006 59 0 0.0 0.0 0.00 0.00 0.00 39 1013.4
20260504045005 62 0 0.0 0.0 0.00 0.00 0.00 36 1013.4
20260504043006 64 0 0.0 0.0 0.00 0.00 0.00 32 1013.3
20260504042005 64 1 0.0 1.0 0.00 0.00 0.00 33 1013.3
20260504041006 66 1 0.0 1.0 0.00 0.00 0.00 30 1013.1
20260504040006 69 1 1.0 4.0 0.00 0.00 0.00 27 1012.9
20260504035007 70 1 1.0 7.0 0.00 0.00 0.00 26 1012.9
20260504034006 70 1 2.0 8.0 0.00 0.00 0.00 25 1012.8
20260504033006 71 359 2.0 7.0 0.00 0.00 0.00 24 1012.7
20260504031006 72 359 3.0 8.0 0.00 0.00 0.00 23 1012.6
20260504030006 72 359 3.0 10.0 0.00 0.00 0.00 23 1012.5
20260504024006 73 1 4.0 9.0 0.00 0.00 0.00 24 1012.6
20260504023006 74 1 4.0 11.0 0.00 0.00 0.00 23 1012.5
20260504022006 74 359 5.0 13.0 0.00 0.00 0.00 23 1012.5
20260504021007 75 1 7.0 16.0 0.00 0.00 0.00 22 1012.5
20260504020007 76 1 7.0 17.0 0.00 0.00 0.00 22 1012.7
20260504015005 77 1 6.0 14.0 0.00 0.00 0.00 22 1012.7
20260504014006 77 1 5.0 11.0 0.00 0.00 0.00 22 1012.7
20260504012007 78 1 5.0 12.0 0.00 0.00 0.00 22 1012.7
20260504011006 79 1 6.0 11.0 0.00 0.00 0.00 24 1012.8
20260504010006 79 1 6.0 15.0 0.00 0.00 0.00 23 1012.6
20260504005006 79 1 7.0 14.0 0.00 0.00 0.00 22 1012.8
20260504004006 79 1 7.0 15.0 0.00 0.00 0.00 24 1012.9
20260504003006 80 1 6.0 14.0 0.00 0.00 0.00 22 1013.0
20260504001006 80 1 6.0 14.0 0.00 0.00 0.00 23 1013.2
20260504000006 80 1 6.0 16.0 0.00 0.00 0.00 22 1013.4
20260503235006 81 1 6.0 14.0 0.00 0.00 0.00 23 1013.3
20260503234006 80 1 5.0 16.0 0.00 0.00 0.00 23 1013.3
20260503233006 81 1 6.0 15.0 0.00 0.00 0.00 23 1013.4
20260503232007 81 1 5.0 12.0 0.00 0.00 0.00 24 1013.6
20260503231006 80 1 5.0 13.0 0.00 0.00 0.00 24 1013.7
20260503230006 80 1 7.0 19.0 0.00 0.00 0.00 26 1013.9
20260503224007 79 1 5.0 13.0 0.00 0.00 0.00 28 1014.1
20260503223005 79 1 5.0 10.0 0.00 0.00 0.00 27 1014.2
20260503221006 78 1 5.0 12.0 0.00 0.00 0.00 29 1014.4
20260503215006 77 1 2.0 8.0 0.00 0.00 0.00 31 1014.6
20260503214006 78 1 6.0 14.0 0.00 0.00 0.00 30 1014.8
20260503212006 76 1 2.0 8.0 0.00 0.00 0.00 32 1015.0
20260503211006 76 1 4.0 10.0 0.00 0.00 0.00 31 1015.2
20260503210006 76 359 4.0 11.0 0.00 0.00 0.00 31 1015.5
20260503205005 76 1 5.0 14.0 0.00 0.00 0.00 32 1015.7
20260503202007 75 1 5.0 10.0 0.00 0.00 0.00 32 1016.1
20260503201006 75 1 4.0 9.0 0.00 0.00 0.00 31 1016.3
20260503195005 73 1 2.0 8.0 0.00 0.00 0.00 33 1016.4
20260503193006 72 1 3.0 7.0 0.00 0.00 0.00 33 1016.7
20260503192007 71 1 2.0 7.0 0.00 0.00 0.00 35 1016.8
20260503190007 70 359 1.0 6.0 0.00 0.00 0.00 36 1017.1
20260503185007 70 1 2.0 5.0 0.00 0.00 0.00 37 1017.2
20260503184006 68 1 2.0 6.0 0.00 0.00 0.00 37 1017.3
20260503183006 67 2 2.0 6.0 0.00 0.00 0.00 39 1017.5
20260503181006 65 1 2.0 6.0 0.00 0.00 0.00 40 1017.7
20260503180006 65 1 4.0 7.0 0.00 0.00 0.00 40 1018.0
20260503175006 64 1 4.0 8.0 0.00 0.00 0.00 40 1018.0
20260503174006 63 1 1.0 5.0 0.00 0.00 0.00 43 1018.1
20260503173007 61 1 0.0 3.0 0.00 0.00 0.00 44 1018.1
20260503172007 60 1 0.0 5.0 0.00 0.00 0.00 45 1018.3
20260503171006 59 1 1.0 5.0 0.00 0.00 0.00 46 1018.4
20260503151006 53 1 1.0 4.0 0.00 0.00 0.00 54 1019.3
20260503131006 46 1 5.0 10.0 0.00 0.00 0.00 62 1018.8